[[{"header":{"parameterUnit":"m.s-1","parameterCategory":2,"la1":30.2991,"la2":30.254,"lo1":-89.0895,"lo2":-89.0444,"dy":0.0017,"dx":0.0017,"nx":28,"ny":28,"refTime":"2025-06-13T03:00:00:Z","depth":"0","parameterNumber":2,"parameterNumberName":"U-component_of_CURRENTS"},"data":[0,0,0,0,0,0,0,0,0,0,0,0,0,0,0,0,0,0,0,0,0,0,0,0,0,0,0,0,0,0,0,0,0,0,0,0,0,0,0,0,0,0,0,0,0,0,0,0,0,0,0,0,0,0,0,0,0,0,0.1819,0.182,0,0.1839,0.1839,0.1839,0.1825,0.1825,0.1825,0.1824,0.1828,0.1829,0.183,0,0,0,0,0,0,0,0,0,0,0,0,0,0.1787,0.1787,0.1819,0.182,0.182,0.1839,0.1839,0.1839,0.1826,0.1825,0.1824,0.1824,0.1828,0.1829,0.183,0,0,0,0,0,0,0,0,0,0,0,0,0,0.1802,0.1787,0.1819,0.1816,0.1817,0.1839,0.1839,0.1839,0.1826,0.1825,0.1824,0.1824,0.1828,0.1829,0.183,0.185,0,0,0.1832,0.1833,0,0,0,0,0,0,0,0,0.1801,0.1803,0.1816,0.1817,0.1817,0.183,0.1829,0.1842,0.1826,0.1821,0.1824,0.1823,0.1829,0.183,0.1833,0.185,0.185,0.1832,0.1833,0.1833,0.1834,0,0,0,0,0,0,0,0.18,0.1802,0.1826,0.1817,0.1817,0.182,0.1821,0.1832,0.1827,0.1821,0.1821,0.1825,0.1829,0.1833,0.1833,0.185,0.1832,0.1833,0.1834,0.1834,0.1921,0.1923,0,0,0,0,0,0,0.18,0.1801,0.1825,0.1826,0.1809,0.1821,0.1823,0.1825,0.1828,0.1828,0.1826,0.1825,0.1831,0.1832,0.1833,0.1881,0.1833,0.1834,0.1835,0.192,0.1922,0.1924,0,0,0,0,0,0,0.18,0.1802,0.1824,0.1815,0.1818,0.1823,0.1826,0.1826,0.1833,0.1832,0.1831,0.1833,0.1831,0.1832,0.1852,0.188,0.1834,0.1835,0.1917,0.192,0.1923,0.196,0,0,0,0,0,0,0.1799,0.1802,0.1806,0.1815,0.1819,0.185,0.1827,0.1827,0.1838,0.1836,0.1838,0.1837,0.183,0.1851,0.1853,0.188,0.1836,0.1915,0.1919,0.1922,0.1957,0.1964,0.197,0,0,0,0,0,0.1797,0.1807,0.1806,0.1809,0.1824,0.1852,0.1854,0.1854,0.1839,0.1854,0.1851,0.1837,0.1875,0.1853,0.1855,0.1883,0.1914,0.1918,0.1922,0.1954,0.1962,0.197,0,0,0,0,0,0,0.1792,0.1807,0.1806,0.1818,0.184,0.185,0.1861,0.186,0.1869,0.1862,0.1854,0.1855,0.1886,0.1883,0.186,0.1921,0.1895,0.1899,0.1919,0.1927,0.1933,0.1934,0.1837,0,0,0,0,0,0.1795,0.1806,0.1824,0.1836,0.1847,0.1854,0.1864,0.1866,0.1875,0.1878,0.1878,0.1885,0.1906,0.1913,0.1928,0.1956,0.2019,0.198,0.1986,0.1992,0.1996,0.213,0.215,0.1937,0.1937,0.1937,0,0,0.1794,0.1806,0.181,0.1836,0.1847,0.1873,0.1858,0.1879,0.1898,0.1878,0.1899,0.1908,0.192,0.1954,0.1968,0.1952,0.2092,0.1997,0.2001,0.2003,0.2137,0.2158,0.2176,0.194,0.1939,0.1939,0,0,0.1807,0.1812,0.183,0.1852,0.1878,0.1887,0.1896,0.1913,0.192,0.1947,0.1941,0.1963,0.1988,0.2003,0.2013,0.2068,0.2124,0.2079,0.211,0.224,0.2259,0.2276,0.2411,0.2439,0.2081,0.2081,0.2081,0,0.1805,0.1829,0.1841,0.1869,0.1885,0.1896,0.1921,0.1938,0.1959,0.1979,0.1961,0.2024,0.2013,0.2074,0.2079,0.2082,0.2176,0.2073,0.2251,0.2269,0.2286,0.2419,0.245,0.2083,0.2083,0.2082,0.2082,0,0.1835,0.1857,0.1872,0.1907,0.1929,0.1954,0.1979,0.2002,0.2007,0.203,0.2089,0.2092,0.2137,0.2135,0.2113,0.2225,0.2262,0.2247,0.223,0.231,0.2445,0.2477,0.2086,0.2085,0.2085,0.2084,0,0,0.1822,0.188,0.1885,0.1906,0.1948,0.1968,0.2009,0.2057,0.2105,0.2125,0.2205,0.2205,0.2224,0.2238,0.2235,0.2312,0.2494,0.2326,0.2332,0.2459,0.2819,0.2795,0.2828,0.253,0.2535,0.2539,0.2875,0,0.1841,0.1892,0.1917,0.1964,0.1989,0.2017,0.2059,0.2104,0.2154,0.2239,0.2264,0.2341,0.2264,0.2308,0.2372,0.2468,0.2578,0.2406,0.2722,0.2732,0.27,0.2862,0.2786,0.3075,0.2906,0.2912,0.2916,0,0.186,0.1892,0.1936,0.1994,0.2009,0.204,0.2118,0.2162,0.2278,0.2327,0.2409,0.2463,0.2566,0.2505,0.2723,0.2631,0.273,0.2796,0.2811,0.2793,0.2766,0.2963,0.314,0.3021,0.2965,0.2961,0.2958,0,0.1839,0.1904,0.1935,0.1954,0.2024,0.205,0.2091,0.2187,0.2259,0.2414,0.2516,0.2632,0.2741,0.2862,0.2961,0.2889,0.323,0.3158,0.324,0.324,0.3236,0.3226,0.3328,0.3357,0.3356,0.3355,0.3354,0,0.1847,0.1873,0.1929,0.1948,0.2,0.2045,0.2134,0.2197,0.2342,0.2469,0.2569,0.2717,0.2844,0.3031,0.3085,0.3277,0.3351,0.3295,0.3342,0.3247,0.3234,0.3173,0.3084,0.3367,0.3365,0.3362,0.336,0,0.1821,0.186,0.19,0.1967,0.1992,0.2028,0.2153,0.2243,0.237,0.2559,0.263,0.2859,0.3096,0.3225,0.3467,0.3466,0.3537,0.3674,0.3548,0.357,0.3462,0.3378,0.3431,0.3325,0.3834,0.3836,0.3837,0,0.1812,0.1829,0.19,0.1943,0.1977,0.2048,0.2122,0.224,0.2352,0.2639,0.2748,0.3043,0.3219,0.3562,0.3659,0.3831,0.3655,0.3846,0.3655,0.3492,0.3436,0.324,0.313,0.3696,0.3696,0.3696,0.3696,0,0.181,0.1833,0.1885,0.1954,0.2025,0.2094,0.2205,0.2288,0.2465,0.2629,0.2876,0.3044,0.3394,0.355,0.3775,0.3841,0.3635,0.385,0.3742,0.3393,0.3136,0.3043,0.3433,0.3697,0.3697,0.3697,0.3697,0.3697,0.1826,0.1848,0.1923,0.1988,0.2055,0.212,0.2167,0.2308,0.2454,0.2671,0.2879,0.3096,0.3407,0.3701,0.3749,0.3768,0.3659,0.3664,0.3606,0.3447,0.3226,0.3605,0.3854,0.3855,0.3856,0.3856,0.3857,0,0.1853,0.1889,0.1959,0.2024,0.2069,0.2106,0.2216,0.2257,0.2384,0.2621,0.2804,0.3128,0.3319,0.3515,0.3657,0.3548,0.336,0.3437,0.3147,0.3071,0.3509,0.3378,0.346,0.3461,0.3461,0.3461,0.3461,0.3461,0.1885,0.1948,0.1971,0.2029,0.2054,0.2081,0.2114,0.2177,0.2309,0.2496,0.267,0.2878,0.3188,0.3425,0.339,0.3315,0.302,0.2919,0.2835,0.3135,0.3149,0.3162,0.3018,0.3024,0.3023,0.2295,0.2289,0.2285]},{"header":{"parameterUnit":"m.s-1","parameterCategory":2,"la1":30.2991,"la2":30.254,"lo1":-89.0895,"lo2":-89.0444,"dy":0.0017,"dx":0.0017,"nx":28,"ny":28,"refTime":"2025-06-13T03:00:00:Z","depth":"0","parameterNumber":3,"parameterNumberName":"V-component_of_CURRENTS"},"data":[0,0,0,0,0,0,0,0,0,0,0,0,0,0,0,0,0,0,0,0,0,0,0,0,0,0,0,0,0,0,0,0,0,0,0,0,0,0,0,0,0,0,0,0,0,0,0,0,0,0,0,0,0,0,0,0,0,0,-0.0027,-0.0027,0,-0.0056,-0.0057,-0.0057,-0.0075,-0.0075,-0.0075,-0.0076,-0.0108,-0.0108,-0.0109,0,0,0,0,0,0,0,0,0,0,0,0,0,0.002,0.0019,-0.0027,-0.0027,-0.0028,-0.0056,-0.0057,-0.0057,-0.0075,-0.0075,-0.0075,-0.0076,-0.0108,-0.0108,-0.0109,0,0,0,0,0,0,0,0,0,0,0,0,0,-0.0003,0.0019,-0.0027,-0.0041,-0.0043,-0.0056,-0.0057,-0.0057,-0.0075,-0.0075,-0.0075,-0.0076,-0.0107,-0.0108,-0.0109,-0.0108,0,0,-0.0112,-0.0112,0,0,0,0,0,0,0,0,-0.0001,-0.0004,-0.0039,-0.004,-0.0042,-0.0064,-0.0052,-0.0075,-0.0075,-0.0061,-0.0076,-0.0076,-0.0094,-0.0096,-0.0098,-0.0109,-0.0111,-0.0112,-0.0113,-0.0113,-0.0113,0,0,0,0,0,0,0,0.0,-0.0003,-0.0037,-0.0039,-0.0041,-0.0045,-0.0048,-0.0056,-0.0074,-0.0062,-0.0064,-0.007,-0.0095,-0.0097,-0.0099,-0.0111,-0.0112,-0.0113,-0.0114,-0.0114,-0.0125,-0.0124,0,0,0,0,0,0,0.0001,-0.0001,-0.0036,-0.0038,-0.0024,-0.0046,-0.0049,-0.0055,-0.0074,-0.0077,-0.0069,-0.0071,-0.0096,-0.0098,-0.0101,-0.0104,-0.0113,-0.0114,-0.0115,-0.0125,-0.0124,-0.0124,0,0,0,0,0,0,0.0002,-0.0002,-0.0035,-0.0022,-0.0026,-0.0046,-0.0052,-0.0056,-0.006,-0.008,-0.0083,-0.0071,-0.0096,-0.0099,-0.0106,-0.0105,-0.0114,-0.0115,-0.0125,-0.0125,-0.0124,-0.0107,0,0,0,0,0,0,0.0003,-0.0002,-0.0002,-0.0022,-0.0027,-0.0037,-0.0052,-0.0056,-0.0064,-0.0065,-0.0082,-0.0085,-0.0097,-0.0104,-0.0106,-0.0106,-0.0116,-0.0126,-0.0125,-0.0124,-0.0108,-0.0106,-0.0105,0,0,0,0,0,0.0005,0.0008,-0.0002,-0.0006,-0.0029,-0.0037,-0.004,-0.0054,-0.0063,-0.006,-0.0073,-0.0085,-0.0102,-0.0104,-0.0107,-0.0108,-0.0126,-0.0125,-0.0125,-0.0109,-0.0107,-0.0105,0,0,0,0,0,0,0.003,0.0006,-0.0006,-0.001,-0.0022,-0.0041,-0.004,-0.0052,-0.006,-0.0062,-0.0081,-0.0085,-0.009,-0.0099,-0.0101,-0.0108,-0.0116,-0.0116,-0.0103,-0.0101,-0.0099,-0.009,-0.0117,0,0,0,0,0,0.0033,0.0029,0.0006,0.0004,-0.0002,-0.0021,-0.0026,-0.0037,-0.0049,-0.0053,-0.0066,-0.0079,-0.0089,-0.0095,-0.0103,-0.0107,-0.0092,-0.0109,-0.0107,-0.0105,-0.0099,-0.0071,-0.0066,-0.0122,-0.0122,-0.0122,0,0,0.0043,0.0029,0.0027,0.0009,-0.0001,-0.0004,-0.0024,-0.0029,-0.0033,-0.0055,-0.0058,-0.0072,-0.0088,-0.0093,-0.0096,-0.0101,-0.008,-0.0104,-0.0103,-0.0097,-0.007,-0.0064,-0.0059,-0.0122,-0.0122,-0.0122,0,0,0.0064,0.0047,0.0052,0.0041,0.0025,0.0012,0.0011,-0.0007,-0.0016,-0.0022,-0.0041,-0.0053,-0.0065,-0.008,-0.0088,-0.0081,-0.007,-0.0083,-0.0069,-0.0042,-0.0037,-0.0032,0.0003,0.001,-0.0084,-0.0084,-0.0084,0,0.0077,0.0074,0.0053,0.0054,0.0047,0.0021,0.0025,0.0013,-0.0005,-0.0003,-0.0018,-0.0028,-0.0059,-0.0057,-0.0069,-0.0078,-0.0052,-0.0077,-0.0039,-0.0034,-0.0029,0.0005,0.0014,-0.0083,-0.0083,-0.0083,-0.0083,0,0.01,0.0095,0.0098,0.0087,0.008,0.0079,0.0056,0.0053,0.0038,0.0031,0.0033,0.0001,0.0005,-0.0022,-0.0053,-0.0039,-0.0026,-0.0038,-0.0042,-0.0022,0.0013,0.0021,-0.0082,-0.0082,-0.0082,-0.0083,0,0,0.0135,0.0117,0.0118,0.0122,0.0095,0.0099,0.009,0.0087,0.0123,0.0081,0.0132,0.0055,0.0057,0.0046,0.0016,0.0007,0.0036,-0.0008,-0.0007,0.0031,0.0114,0.0091,0.0098,0.0039,0.004,0.0042,0.0129,0,0.0159,0.0168,0.0149,0.0164,0.0166,0.0141,0.0155,0.015,0.0157,0.0207,0.0157,0.0202,0.0081,0.0117,0.0074,0.0072,0.0058,0.0014,0.0086,0.0089,0.0068,0.0106,0.0081,0.0154,0.0137,0.0139,0.014,0,0.0186,0.0188,0.02,0.0215,0.0219,0.0231,0.0269,0.0284,0.0323,0.0343,0.0348,0.035,0.0331,0.0252,0.0207,0.0193,0.0145,0.0116,0.012,0.0098,0.008,0.0129,0.0169,-0.0038,0.0152,0.0151,0.0151,0,0.0223,0.0228,0.0241,0.0239,0.0251,0.027,0.0294,0.0329,0.0409,0.0468,0.0576,0.051,0.0584,0.0469,0.0367,0.0315,0.0347,0.0282,0.0208,0.0207,0.0198,0.0193,0.0048,0.0252,0.0252,0.0252,0.0251,0,0.025,0.0265,0.0268,0.0277,0.035,0.0333,0.0453,0.0467,0.0583,0.0747,0.0676,0.0822,0.065,0.0643,0.0468,0.0378,0.0428,0.0226,0.023,0.0202,0.0198,0.0026,-0.0091,0.0255,0.0254,0.0254,0.0253,0,0.0292,0.0277,0.0318,0.0345,0.0369,0.0435,0.0589,0.0716,0.0781,0.1012,0.1065,0.1114,0.1095,0.0898,0.0778,0.0582,0.0342,0.04,0.0376,0.0374,0.0067,-0.0046,-0.0119,-0.0219,0.0335,0.0335,0.0335,0,0.0311,0.0329,0.0393,0.0474,0.0498,0.061,0.0736,0.0814,0.0984,0.1214,0.1369,0.1419,0.1486,0.1268,0.0912,0.0618,0.0402,0.0417,0.0275,0.0057,-0.0065,-0.0125,-0.0209,0.0282,0.0282,0.0281,0.0281,0,0.0393,0.0419,0.048,0.0635,0.0766,0.0918,0.1095,0.1244,0.1405,0.1588,0.1837,0.1901,0.1696,0.1402,0.0978,0.0742,0.0257,0.04,0.0188,-0.0111,-0.0194,-0.0288,0.022,0.0278,0.0278,0.0278,0.0278,0.0278,0.0502,0.0585,0.0705,0.085,0.1005,0.1223,0.1367,0.1585,0.184,0.2116,0.2165,0.2282,0.1824,0.1232,0.0894,0.0241,0.0242,0.0019,-0.009,-0.012,-0.0266,0.0231,0.0273,0.0273,0.0274,0.0274,0.0274,0,0.068,0.0778,0.0931,0.1118,0.1304,0.1346,0.1622,0.178,0.2064,0.2325,0.2496,0.2327,0.1744,0.114,0.0263,-0.0174,-0.0341,-0.042,-0.0541,-0.06,-0.0139,-0.0198,-0.0273,-0.0273,-0.0273,-0.0273,-0.0272,-0.0272,0.0807,0.0994,0.1058,0.1362,0.1481,0.1726,0.1866,0.2088,0.2286,0.2558,0.2629,0.2649,0.2142,0.0604,-0.0405,-0.0635,-0.094,-0.0997,-0.1137,-0.0882,-0.0851,-0.0821,-0.0907,-0.1128,-0.113,-0.1558,-0.1562,-0.1566]}],[{"header":{"parameterUnit":"m.s-1","parameterCategory":2,"la1":30.2991,"la2":30.254,"lo1":-89.0895,"lo2":-89.0444,"dy":0.0017,"dx":0.0017,"nx":28,"ny":28,"refTime":"2025-06-13T03:00:00:Z","depth":"2","parameterNumber":2,"parameterNumberName":"U-component_of_CURRENTS"},"data":[0,0,0,0,0,0,0,0,0,0,0,0,0,0,0,0,0,0,0,0,0,0,0,0,0,0,0,0,0,0,0,0,0,0,0,0,0,0,0,0,0,0,0,0,0,0,0,0,0,0,0,0,0,0,0,0,0,0,0.1793,0.1793,0,0.1809,0.1809,0.1809,0.1797,0.1797,0.1796,0.1796,0.182,0.182,0.1821,0,0,0,0,0,0,0,0,0,0,0,0,0,0.1755,0.1756,0.1793,0.1793,0.1794,0.1809,0.1809,0.1809,0.1797,0.1797,0.1796,0.1796,0.1819,0.182,0.1821,0,0,0,0,0,0,0,0,0,0,0,0,0,0.1768,0.1756,0.1793,0.1792,0.1793,0.1809,0.1809,0.1809,0.1797,0.1797,0.1796,0.1796,0.1819,0.182,0.1821,0.1835,0,0,0.1825,0.1826,0,0,0,0,0,0,0,0,0.1767,0.1769,0.1792,0.1793,0.1793,0.1804,0.1805,0.1819,0.1797,0.1791,0.1796,0.1796,0.1818,0.1819,0.1817,0.1836,0.1837,0.1825,0.1826,0.1826,0.1827,0,0,0,0,0,0,0,0.1767,0.1768,0.1796,0.1793,0.1793,0.1793,0.1794,0.1807,0.1803,0.1792,0.1792,0.18,0.1817,0.1816,0.1818,0.1837,0.1825,0.1826,0.1827,0.1827,0.1914,0.1915,0,0,0,0,0,0,0.1772,0.1768,0.1795,0.1796,0.1783,0.1794,0.1795,0.1798,0.1803,0.1805,0.18,0.1799,0.1814,0.1816,0.1819,0.1876,0.1826,0.1828,0.1828,0.1912,0.1914,0.1916,0,0,0,0,0,0,0.1771,0.1774,0.1795,0.1786,0.1789,0.1796,0.1798,0.1798,0.1807,0.181,0.181,0.181,0.1814,0.1817,0.1839,0.1876,0.1828,0.1829,0.191,0.1913,0.1915,0.1965,0,0,0,0,0,0,0.177,0.1773,0.1779,0.1786,0.1789,0.1823,0.1799,0.1799,0.1813,0.1813,0.1819,0.182,0.1814,0.1837,0.184,0.1876,0.183,0.1908,0.1912,0.1914,0.1962,0.1969,0.1975,0,0,0,0,0,0.1768,0.1779,0.1779,0.1783,0.1796,0.1824,0.1826,0.1827,0.1814,0.1831,0.1826,0.182,0.1859,0.1839,0.1842,0.188,0.1907,0.1911,0.1914,0.1958,0.1968,0.1975,0,0,0,0,0,0,0.1765,0.178,0.1779,0.1794,0.1816,0.1824,0.1837,0.1836,0.1844,0.184,0.1833,0.1835,0.1871,0.1869,0.1847,0.1915,0.1885,0.189,0.1918,0.1927,0.1933,0.1936,0.1831,0,0,0,0,0,0.1768,0.178,0.1799,0.1812,0.1824,0.1832,0.1842,0.1845,0.1854,0.1856,0.1858,0.1866,0.1888,0.19,0.1913,0.1946,0.1986,0.1975,0.1982,0.1988,0.1994,0.2099,0.2116,0.1928,0.1928,0.1927,0,0,0.177,0.1781,0.1787,0.1813,0.1825,0.1851,0.1837,0.1861,0.1881,0.1859,0.1882,0.189,0.1902,0.1938,0.1955,0.1941,0.2064,0.1992,0.1997,0.2,0.2105,0.2123,0.214,0.193,0.193,0.1929,0,0,0.1788,0.1792,0.1812,0.1835,0.1863,0.187,0.1882,0.1898,0.1906,0.1932,0.1925,0.195,0.1976,0.1992,0.2004,0.2059,0.2096,0.2072,0.2111,0.2214,0.223,0.2245,0.2327,0.2349,0.2077,0.2077,0.2077,0,0.179,0.1815,0.1825,0.1855,0.1873,0.1882,0.1911,0.1927,0.1947,0.1966,0.1949,0.201,0.2003,0.2068,0.2075,0.2076,0.2139,0.2076,0.2224,0.224,0.2255,0.2334,0.2358,0.208,0.2079,0.2079,0.2079,0,0.1825,0.1849,0.1866,0.1901,0.1923,0.1951,0.1975,0.1998,0.2003,0.2024,0.2086,0.2088,0.2132,0.2134,0.2113,0.2217,0.223,0.2222,0.2204,0.2277,0.2356,0.238,0.2084,0.2083,0.2082,0.2081,0,0,0.1817,0.1877,0.1884,0.1906,0.1947,0.1967,0.2009,0.2056,0.2105,0.2125,0.2202,0.2211,0.2229,0.2243,0.2242,0.2306,0.2442,0.2306,0.231,0.2387,0.2679,0.2589,0.2606,0.2477,0.2481,0.2485,0.2695,0,0.1841,0.1895,0.1921,0.197,0.1997,0.2023,0.2065,0.2109,0.2158,0.2238,0.2265,0.2341,0.2272,0.2316,0.2366,0.2433,0.2507,0.2385,0.2595,0.2601,0.2514,0.2631,0.2382,0.254,0.2718,0.2722,0.2725,0,0.1866,0.1898,0.1946,0.2004,0.2019,0.2051,0.2126,0.2172,0.2282,0.233,0.2412,0.2462,0.2551,0.2494,0.2648,0.2585,0.2634,0.2672,0.2682,0.2594,0.2555,0.2495,0.2576,0.2765,0.2761,0.2759,0.2756,0,0.1845,0.1914,0.1947,0.1967,0.2036,0.2063,0.2102,0.2198,0.2269,0.2418,0.2521,0.2616,0.2707,0.2783,0.2825,0.2777,0.3004,0.2956,0.2924,0.2918,0.2741,0.2711,0.3088,0.3088,0.3088,0.3087,0.3086,0,0.1856,0.1884,0.1941,0.1961,0.2014,0.2059,0.215,0.2212,0.2353,0.2484,0.2577,0.2721,0.2792,0.2916,0.2924,0.2998,0.3095,0.2961,0.298,0.2749,0.2719,0.2928,0.2906,0.3095,0.3093,0.3092,0.309,0,0.1831,0.1872,0.1913,0.198,0.2007,0.2042,0.2169,0.2262,0.2389,0.2581,0.265,0.2847,0.3009,0.3062,0.3204,0.3138,0.3207,0.3205,0.291,0.2889,0.3031,0.301,0.3221,0.322,0.3219,0.3218,0.3217,0,0.1822,0.1841,0.1912,0.1958,0.1993,0.2066,0.2144,0.226,0.2382,0.2663,0.2775,0.2994,0.3102,0.3254,0.3211,0.3231,0.3268,0.3004,0.2843,0.3054,0.3053,0.3033,0.3014,0.2643,0.2637,0.2633,0.263,0,0.1821,0.1844,0.1896,0.1969,0.2046,0.2122,0.2243,0.2325,0.2508,0.2667,0.2891,0.2993,0.3139,0.3048,0.3052,0.3011,0.2967,0.2916,0.328,0.2622,0.2519,0.2514,0.2512,0.2591,0.2595,0.2598,0.26,0.2601,0.1835,0.186,0.1937,0.2007,0.2087,0.2165,0.2208,0.2339,0.2474,0.2608,0.2797,0.2821,0.2867,0.2728,0.2685,0.2634,0.2812,0.2658,0.2668,0.2684,0.2554,0.2452,0.2488,0.2491,0.2494,0.2496,0.2498,0,0.1858,0.1906,0.1979,0.2055,0.2114,0.216,0.2276,0.2251,0.2339,0.2428,0.2495,0.2291,0.2259,0.2321,0.2198,0.2198,0.2127,0.2104,0.2006,0.2047,0.2082,0.1917,0.1685,0.1682,0.168,0.1678,0,0,0.1889,0.1956,0.1984,0.2067,0.2111,0.2134,0.2164,0.2088,0.2082,0.197,0.1934,0.2029,0.2197,0.189,0.1884,0.1778,0.1873,0.1688,0.2341,0.2262,0.2294,0.2409,0.2201,0,0,0,0,0]},{"header":{"parameterUnit":"m.s-1","parameterCategory":2,"la1":30.2991,"la2":30.254,"lo1":-89.0895,"lo2":-89.0444,"dy":0.0017,"dx":0.0017,"nx":28,"ny":28,"refTime":"2025-06-13T03:00:00:Z","depth":"2","parameterNumber":3,"parameterNumberName":"V-component_of_CURRENTS"},"data":[0,0,0,0,0,0,0,0,0,0,0,0,0,0,0,0,0,0,0,0,0,0,0,0,0,0,0,0,0,0,0,0,0,0,0,0,0,0,0,0,0,0,0,0,0,0,0,0,0,0,0,0,0,0,0,0,0,0,-0.0166,-0.0166,0,-0.02,-0.02,-0.0201,-0.0215,-0.0215,-0.0215,-0.0215,-0.0248,-0.0249,-0.025,0,0,0,0,0,0,0,0,0,0,0,0,0,-0.0121,-0.0122,-0.0166,-0.0167,-0.0167,-0.02,-0.02,-0.0201,-0.0215,-0.0215,-0.0215,-0.0215,-0.0248,-0.0249,-0.025,0,0,0,0,0,0,0,0,0,0,0,0,0,-0.0146,-0.0122,-0.0166,-0.0179,-0.018,-0.02,-0.02,-0.0201,-0.0215,-0.0215,-0.0215,-0.0215,-0.0248,-0.0249,-0.025,-0.0258,0,0,-0.0254,-0.0255,0,0,0,0,0,0,0,0,-0.0144,-0.0147,-0.0176,-0.0178,-0.018,-0.0204,-0.0197,-0.022,-0.0215,-0.02,-0.0215,-0.0215,-0.0234,-0.0236,-0.0241,-0.0259,-0.0261,-0.0254,-0.0255,-0.0256,-0.0256,0,0,0,0,0,0,0,-0.0142,-0.0146,-0.0178,-0.0177,-0.0179,-0.0185,-0.0189,-0.0201,-0.0216,-0.0202,-0.0203,-0.0208,-0.0235,-0.024,-0.0242,-0.0261,-0.0254,-0.0256,-0.0256,-0.0257,-0.0283,-0.0283,0,0,0,0,0,0,-0.014,-0.0144,-0.0177,-0.018,-0.0163,-0.0186,-0.019,-0.0195,-0.0216,-0.0219,-0.0208,-0.0209,-0.0238,-0.0241,-0.0244,-0.0241,-0.0256,-0.0257,-0.0258,-0.0283,-0.0283,-0.0283,0,0,0,0,0,0,-0.0139,-0.0142,-0.0176,-0.0163,-0.0168,-0.0187,-0.0193,-0.0196,-0.0198,-0.0221,-0.0224,-0.0207,-0.0238,-0.0242,-0.0252,-0.0243,-0.0258,-0.0259,-0.0283,-0.0283,-0.0283,-0.0245,0,0,0,0,0,0,-0.0137,-0.0142,-0.0141,-0.0163,-0.0169,-0.018,-0.0193,-0.0197,-0.0202,-0.0203,-0.0221,-0.0225,-0.0238,-0.025,-0.0253,-0.0245,-0.026,-0.0283,-0.0283,-0.0283,-0.0247,-0.0244,-0.0242,0,0,0,0,0,-0.0136,-0.0132,-0.014,-0.0144,-0.0168,-0.018,-0.0183,-0.0196,-0.0202,-0.0198,-0.0214,-0.0224,-0.0251,-0.0251,-0.0255,-0.0247,-0.0284,-0.0283,-0.0283,-0.0248,-0.0244,-0.0242,0,0,0,0,0,0,-0.011,-0.0134,-0.0143,-0.0147,-0.016,-0.0182,-0.018,-0.0192,-0.0202,-0.0202,-0.0223,-0.0228,-0.0233,-0.0247,-0.0246,-0.0255,-0.0269,-0.0269,-0.024,-0.0237,-0.0235,-0.0227,-0.0261,0,0,0,0,0,-0.0105,-0.0109,-0.0133,-0.0134,-0.0139,-0.0159,-0.0165,-0.0174,-0.0189,-0.0193,-0.0208,-0.0223,-0.0236,-0.0242,-0.0254,-0.026,-0.0271,-0.0258,-0.0256,-0.0253,-0.025,-0.0248,-0.0245,-0.0282,-0.0282,-0.0282,0,0,-0.0094,-0.0108,-0.011,-0.0128,-0.0139,-0.0141,-0.0162,-0.0166,-0.0167,-0.0195,-0.0197,-0.0213,-0.0235,-0.024,-0.0244,-0.0251,-0.0252,-0.0253,-0.0251,-0.0249,-0.0247,-0.0244,-0.024,-0.0282,-0.0282,-0.0282,0,0,-0.0072,-0.0087,-0.0082,-0.0093,-0.0109,-0.0122,-0.0122,-0.0142,-0.0148,-0.0155,-0.0175,-0.0189,-0.0206,-0.0221,-0.0231,-0.0224,-0.0237,-0.0226,-0.0206,-0.0204,-0.0201,-0.0198,-0.0221,-0.022,-0.0225,-0.0225,-0.0225,0,-0.0056,-0.0059,-0.0081,-0.008,-0.0086,-0.0112,-0.0106,-0.0117,-0.0137,-0.0135,-0.0148,-0.017,-0.0197,-0.02,-0.0206,-0.0217,-0.0223,-0.0214,-0.0199,-0.0197,-0.0194,-0.0218,-0.0218,-0.0223,-0.0223,-0.0224,-0.0224,0,-0.0035,-0.0036,-0.0033,-0.0042,-0.005,-0.0049,-0.0071,-0.0072,-0.0084,-0.0094,-0.0096,-0.013,-0.0136,-0.0156,-0.0184,-0.018,-0.0193,-0.0194,-0.0204,-0.0188,-0.0215,-0.0215,-0.0221,-0.0221,-0.0222,-0.0222,0,0,-0.0,-0.0014,-0.0012,-0.0007,-0.0031,-0.0029,-0.0032,-0.0035,-0.0004,-0.0043,-0.0009,-0.007,-0.0077,-0.009,-0.012,-0.014,-0.015,-0.0162,-0.0163,-0.0179,-0.0157,-0.0223,-0.023,-0.0139,-0.0138,-0.0138,-0.0187,0,0.0026,0.0038,0.002,0.0038,0.0043,0.002,0.0033,0.0027,0.0031,0.0062,0.0012,0.0042,-0.0052,-0.0027,-0.0074,-0.0107,-0.0147,-0.0137,-0.0175,-0.0177,-0.0232,-0.0231,-0.0206,-0.0252,-0.0188,-0.0188,-0.0188,0,0.0053,0.0057,0.0075,0.009,0.0093,0.0106,0.0137,0.015,0.017,0.0183,0.0177,0.0166,0.0129,0.0069,-0.0028,-0.0012,-0.0092,-0.0142,-0.0144,-0.0218,-0.0243,-0.0255,-0.0255,-0.0189,-0.0189,-0.0189,-0.0189,0,0.009,0.0099,0.0118,0.0117,0.0128,0.0147,0.0166,0.0191,0.0249,0.0289,0.0373,0.0287,0.0309,0.0191,0.0043,0.0034,-0.0063,-0.0076,-0.0226,-0.0232,-0.0225,-0.0232,-0.0153,-0.0153,-0.0152,-0.0152,-0.0152,0,0.0121,0.014,0.0146,0.0158,0.0222,0.0206,0.0305,0.0317,0.0391,0.0497,0.0461,0.0542,0.0347,0.0267,0.01,-0.0077,-0.0024,-0.0228,-0.0246,-0.0216,-0.022,-0.0174,-0.0176,-0.0154,-0.0154,-0.0153,-0.0153,0,0.0166,0.0157,0.0198,0.0222,0.0243,0.03,0.0414,0.0503,0.0567,0.0716,0.0754,0.0739,0.0631,0.0404,0.0207,0.0025,-0.0146,-0.0231,-0.0209,-0.0225,-0.033,-0.0329,-0.0371,-0.0374,-0.0376,-0.0378,-0.038,0,0.0188,0.0208,0.0265,0.033,0.0353,0.0446,0.0533,0.0585,0.0687,0.0851,0.0932,0.0887,0.0812,0.0478,0.0167,-0.0159,-0.0185,-0.0329,-0.0356,-0.0338,-0.0351,-0.0346,-0.0343,-0.0334,-0.0335,-0.0336,-0.0337,0,0.0262,0.0284,0.0334,0.0452,0.0547,0.0643,0.0756,0.0831,0.0923,0.0964,0.1008,0.096,0.0761,0.0431,0.0035,-0.0167,-0.0281,-0.0359,-0.031,-0.0295,-0.031,-0.0321,-0.0317,-0.0345,-0.0344,-0.0343,-0.0343,-0.0343,0.0344,0.0398,0.0482,0.0587,0.0705,0.0789,0.0806,0.0891,0.091,0.0968,0.0988,0.0934,0.0754,0.0219,-0.0077,-0.0357,-0.0355,-0.0462,-0.0455,-0.0448,-0.0447,-0.0467,-0.0532,-0.0532,-0.0532,-0.0532,-0.0533,0,0.0434,0.0501,0.0617,0.069,0.0761,0.0838,0.0921,0.089,0.0799,0.0943,0.0873,0.0692,0.0413,0.0239,-0.0178,-0.0462,-0.0462,-0.0542,-0.0458,-0.045,-0.0443,-0.0439,-0.0522,-0.0523,-0.0523,-0.0524,0,0,0.0494,0.0594,0.0617,0.0703,0.0757,0.0775,0.077,0.0729,0.0779,0.0758,0.078,0.0804,0.0579,0.0281,-0.0067,-0.0279,-0.0314,-0.0341,-0.0327,-0.0183,-0.0173,-0.0382,-0.0365,0,0,0,0,0]}],[{"header":{"parameterUnit":"m.s-1","parameterCategory":2,"la1":30.2991,"la2":30.254,"lo1":-89.0895,"lo2":-89.0444,"dy":0.0017,"dx":0.0017,"nx":28,"ny":28,"refTime":"2025-06-13T03:00:00:Z","depth":"4","parameterNumber":2,"parameterNumberName":"U-component_of_CURRENTS"},"data":[0,0,0,0,0,0,0,0,0,0,0,0,0,0,0,0,0,0,0,0,0,0,0,0,0,0,0,0,0,0,0,0,0,0,0,0,0,0,0,0,0,0,0,0,0,0,0,0,0,0,0,0,0,0,0,0,0,0,0.09,0.09,0,0.0971,0.0972,0.0973,0.1022,0.1022,0.1022,0.1023,0.1057,0.1058,0.1058,0,0,0,0,0,0,0,0,0,0,0,0,0,0.0829,0.083,0.0899,0.09,0.0901,0.0971,0.0972,0.0973,0.1022,0.1022,0.1022,0.1023,0.1057,0.1058,0.1058,0,0,0,0,0,0,0,0,0,0,0,0,0,0.0876,0.083,0.0899,0.0934,0.0937,0.0971,0.0972,0.0973,0.1022,0.1022,0.1022,0.1023,0.1057,0.1058,0.1058,0.1055,0,0,0.1061,0.1062,0,0,0,0,0,0,0,0,0.0874,0.0879,0.0928,0.0931,0.0935,0.0988,0.096,0.0999,0.1021,0.099,0.1023,0.1023,0.103,0.1033,0.1047,0.1056,0.1058,0.1061,0.1062,0.1062,0.1063,0,0,0,0,0,0,0,0.087,0.0876,0.0928,0.0928,0.0933,0.0954,0.0961,0.0968,0.1006,0.0993,0.0996,0.1004,0.1032,0.1046,0.1048,0.1058,0.1061,0.1062,0.1063,0.1063,0.1151,0.1152,0,0,0,0,0,0,0.0859,0.0873,0.0926,0.093,0.0905,0.0954,0.0962,0.0971,0.1007,0.1013,0.1003,0.1005,0.1044,0.1046,0.1049,0.1122,0.1062,0.1063,0.1064,0.1149,0.1151,0.1153,0,0,0,0,0,0,0.0857,0.0863,0.0923,0.0903,0.0912,0.0955,0.0964,0.0972,0.1008,0.1015,0.1021,0.1033,0.1044,0.1048,0.108,0.1121,0.1064,0.1065,0.1147,0.115,0.1152,0.122,0,0,0,0,0,0,0.0855,0.0862,0.0878,0.0902,0.0913,0.0956,0.0964,0.0973,0.101,0.1014,0.1042,0.1045,0.1045,0.1079,0.1081,0.1121,0.1065,0.1145,0.1148,0.1151,0.1216,0.1225,0.1233,0,0,0,0,0,0.0852,0.0866,0.0878,0.0886,0.0929,0.0957,0.0965,0.0996,0.1011,0.103,0.1054,0.1045,0.1102,0.1081,0.1083,0.1124,0.1143,0.1147,0.1151,0.1212,0.1223,0.1232,0,0,0,0,0,0,0.0847,0.0873,0.0887,0.091,0.0938,0.0965,0.0993,0.1008,0.1044,0.106,0.1061,0.1065,0.1113,0.1106,0.1083,0.116,0.1124,0.1128,0.1169,0.118,0.1188,0.1188,0.1066,0,0,0,0,0,0.0851,0.0873,0.0896,0.0921,0.0937,0.0969,0.099,0.1013,0.104,0.1058,0.1079,0.1103,0.1127,0.1143,0.1162,0.1196,0.1207,0.1227,0.1235,0.1242,0.1245,0.1318,0.1334,0.1166,0.1166,0.1166,0,0,0.0855,0.0877,0.0888,0.0923,0.0952,0.0976,0.0985,0.1028,0.106,0.1054,0.1115,0.1134,0.1143,0.1191,0.1212,0.1193,0.1293,0.1247,0.1253,0.1252,0.1324,0.134,0.1355,0.1169,0.1168,0.1168,0,0,0.0863,0.0896,0.0911,0.0926,0.0972,0.1005,0.102,0.1063,0.11,0.1146,0.116,0.1196,0.1234,0.1252,0.1262,0.1324,0.1336,0.1345,0.1389,0.146,0.1475,0.1488,0.151,0.1525,0.135,0.135,0.135,0,0.0873,0.0882,0.0921,0.093,0.0957,0.1017,0.104,0.1083,0.1135,0.1175,0.1175,0.126,0.1258,0.132,0.1344,0.1342,0.1381,0.1348,0.1472,0.1485,0.1497,0.1518,0.1533,0.1353,0.1353,0.1353,0.1352,0,0.0865,0.0883,0.0897,0.0937,0.0982,0.1011,0.1074,0.1135,0.1194,0.1232,0.1319,0.1333,0.1387,0.1395,0.1385,0.1478,0.1477,0.1476,0.1446,0.1519,0.1535,0.1549,0.1359,0.1357,0.1356,0.1355,0,0,0.0831,0.0886,0.0877,0.0912,0.0985,0.1025,0.1109,0.1197,0.1271,0.1326,0.1414,0.1445,0.1482,0.1495,0.1506,0.1553,0.1651,0.1561,0.1563,0.1581,0.1804,0.1676,0.1679,0.17,0.1703,0.1706,0.1776,0,0.0809,0.0837,0.0871,0.0925,0.0962,0.1047,0.1133,0.123,0.1318,0.1421,0.1466,0.1552,0.1515,0.1569,0.1611,0.166,0.1697,0.163,0.1732,0.1733,0.1611,0.1694,0.1716,0.1787,0.179,0.1793,0.1794,0,0.0757,0.0799,0.0848,0.096,0.0986,0.1051,0.1223,0.1302,0.1454,0.1521,0.1612,0.1661,0.1747,0.171,0.1812,0.1791,0.1801,0.1812,0.1816,0.1682,0.1633,0.1703,0.182,0.1818,0.1816,0.1814,0.1813,0,0.0708,0.0771,0.0832,0.0852,0.0994,0.1075,0.1187,0.135,0.1435,0.1614,0.1682,0.1795,0.1869,0.1922,0.1925,0.1912,0.2022,0.2003,0.1882,0.1871,0.1933,0.1918,0.2067,0.2067,0.2066,0.2066,0.2066,0,0.0651,0.0687,0.0829,0.0844,0.0977,0.1094,0.1253,0.1365,0.153,0.1623,0.1748,0.1807,0.1937,0.1995,0.1991,0.1975,0.2078,0.19,0.1895,0.1956,0.1944,0.1942,0.1926,0.2069,0.2068,0.2068,0.2067,0,0.0579,0.0648,0.0734,0.0893,0.0954,0.1075,0.1282,0.1378,0.1545,0.167,0.1732,0.1869,0.1957,0.202,0.2109,0.2041,0.2046,0.2001,0.2047,0.2041,0.183,0.1817,0.1903,0.19,0.1897,0.1894,0.1892,0,0.0546,0.0576,0.075,0.0831,0.0915,0.1096,0.1206,0.1386,0.146,0.1658,0.1682,0.1835,0.1905,0.1922,0.2003,0.2023,0.1978,0.1973,0.1908,0.1833,0.1821,0.1813,0.1805,0.1887,0.1886,0.1886,0.1885,0,0.049,0.0563,0.0636,0.079,0.0921,0.1036,0.1188,0.1229,0.1415,0.1561,0.1615,0.168,0.177,0.1839,0.1878,0.1868,0.1989,0.1941,0.1946,0.1885,0.1815,0.1803,0.1799,0.1874,0.1876,0.1877,0.1877,0,0.0461,0.0512,0.0609,0.0747,0.0878,0.0932,0.1037,0.1125,0.1217,0.142,0.143,0.1583,0.1734,0.1755,0.1771,0.1789,0.176,0.1699,0.1716,0.1729,0.1641,0.1525,0.1505,0,0,0,0,0,0.0443,0.0468,0.0559,0.0684,0.0791,0.085,0.0986,0.1079,0.1247,0.1245,0.1337,0.1408,0.1492,0.1564,0.1549,0.1686,0.1755,0.1661,0.1689,0.1815,0.1827,0.1741,0,0,0,0,0,0,0.0423,0.0494,0.0517,0.0572,0.0632,0.0715,0.0788,0.0899,0.091,0.1099,0.1149,0.1308,0.1403,0.1477,0.1512,0.1538,0.1525,0.1767,0.1763,0.1808,0.1819,0.1829,0.1744,0,0,0,0,0]},{"header":{"parameterUnit":"m.s-1","parameterCategory":2,"la1":30.2991,"la2":30.254,"lo1":-89.0895,"lo2":-89.0444,"dy":0.0017,"dx":0.0017,"nx":28,"ny":28,"refTime":"2025-06-13T03:00:00:Z","depth":"4","parameterNumber":3,"parameterNumberName":"V-component_of_CURRENTS"},"data":[0,0,0,0,0,0,0,0,0,0,0,0,0,0,0,0,0,0,0,0,0,0,0,0,0,0,0,0,0,0,0,0,0,0,0,0,0,0,0,0,0,0,0,0,0,0,0,0,0,0,0,0,0,0,0,0,0,0,-0.0142,-0.0142,0,-0.0181,-0.0181,-0.0182,-0.0209,-0.0209,-0.0209,-0.0209,-0.0298,-0.03,-0.0302,0,0,0,0,0,0,0,0,0,0,0,0,0,-0.0117,-0.0117,-0.0142,-0.0142,-0.0143,-0.0181,-0.0181,-0.0182,-0.0209,-0.0209,-0.0209,-0.021,-0.0297,-0.03,-0.0302,0,0,0,0,0,0,0,0,0,0,0,0,0,-0.0139,-0.0117,-0.0141,-0.0161,-0.0163,-0.0181,-0.0181,-0.0182,-0.0209,-0.0209,-0.0209,-0.021,-0.0296,-0.03,-0.0303,-0.0315,0,0,-0.0312,-0.0314,0,0,0,0,0,0,0,0,-0.0137,-0.0139,-0.0158,-0.016,-0.0162,-0.0191,-0.0205,-0.0229,-0.0208,-0.0191,-0.0209,-0.021,-0.0267,-0.0273,-0.0277,-0.0319,-0.0322,-0.0313,-0.0315,-0.0316,-0.0317,0,0,0,0,0,0,0,-0.0136,-0.0138,-0.0156,-0.0158,-0.0161,-0.0178,-0.0181,-0.021,-0.0226,-0.0192,-0.0194,-0.02,-0.0269,-0.0274,-0.028,-0.0324,-0.0313,-0.0315,-0.0317,-0.0319,-0.0391,-0.0391,0,0,0,0,0,0,-0.013,-0.0136,-0.0155,-0.0158,-0.0151,-0.0178,-0.0181,-0.0181,-0.0225,-0.0232,-0.0199,-0.0201,-0.0269,-0.0276,-0.0283,-0.0291,-0.0316,-0.0319,-0.0321,-0.0391,-0.0391,-0.0391,0,0,0,0,0,0,-0.013,-0.0131,-0.0154,-0.0149,-0.0153,-0.0178,-0.0177,-0.0181,-0.0194,-0.023,-0.0238,-0.0208,-0.0269,-0.0279,-0.0303,-0.0295,-0.032,-0.0323,-0.0391,-0.0391,-0.0391,-0.0313,0,0,0,0,0,0,-0.0129,-0.0131,-0.013,-0.0148,-0.0153,-0.0162,-0.0177,-0.0182,-0.0196,-0.0199,-0.024,-0.0248,-0.027,-0.0298,-0.0306,-0.03,-0.0326,-0.0391,-0.0391,-0.0391,-0.0316,-0.0311,-0.0306,0,0,0,0,0,-0.0127,-0.0124,-0.013,-0.0133,-0.0151,-0.0162,-0.0165,-0.0184,-0.0196,-0.0198,-0.0222,-0.0247,-0.0305,-0.03,-0.031,-0.0305,-0.0391,-0.0391,-0.0391,-0.0318,-0.0312,-0.0306,0,0,0,0,0,0,-0.0114,-0.0127,-0.0134,-0.0134,-0.0147,-0.0167,-0.0173,-0.0186,-0.0205,-0.0212,-0.0245,-0.0254,-0.0275,-0.0304,-0.0298,-0.0328,-0.0354,-0.0356,-0.0295,-0.0289,-0.0285,-0.0267,-0.0328,0,0,0,0,0,-0.011,-0.0112,-0.0126,-0.0128,-0.0133,-0.0154,-0.0162,-0.0175,-0.0194,-0.0204,-0.023,-0.0261,-0.0282,-0.0296,-0.0324,-0.0338,-0.0378,-0.0344,-0.0339,-0.0335,-0.0328,-0.0379,-0.0377,-0.0391,-0.0391,-0.0391,0,0,-0.0107,-0.0115,-0.0117,-0.0126,-0.0139,-0.0131,-0.016,-0.0173,-0.0164,-0.0211,-0.0215,-0.0249,-0.0284,-0.0295,-0.0307,-0.0317,-0.0354,-0.0335,-0.033,-0.0327,-0.0379,-0.0377,-0.0376,-0.0391,-0.0391,-0.0391,0,0,-0.0096,-0.0107,-0.0102,-0.01,-0.0115,-0.0127,-0.0129,-0.0149,-0.0157,-0.0168,-0.0195,-0.0215,-0.0258,-0.0267,-0.028,-0.0268,-0.0329,-0.029,-0.0247,-0.0295,-0.0294,-0.0294,-0.0346,-0.035,-0.0284,-0.0284,-0.0284,0,-0.0095,-0.0074,-0.0103,-0.0086,-0.0077,-0.012,-0.0098,-0.0112,-0.0136,-0.0142,-0.0163,-0.0216,-0.0238,-0.0243,-0.023,-0.0254,-0.0302,-0.026,-0.0288,-0.0288,-0.0289,-0.0342,-0.0348,-0.028,-0.0281,-0.0281,-0.0281,0,-0.0067,-0.0044,-0.004,-0.0029,-0.0033,-0.002,-0.0038,-0.0051,-0.0075,-0.0091,-0.0116,-0.0151,-0.0183,-0.019,-0.0201,-0.0215,-0.0254,-0.0276,-0.0296,-0.0283,-0.034,-0.0348,-0.0275,-0.0276,-0.0277,-0.0278,0,0,-0.0063,-0.0026,-0.0018,0.0005,0.0009,0.0006,0.0013,0.0008,-0.0005,-0.0034,-0.0048,-0.0063,-0.0104,-0.012,-0.015,-0.0176,-0.0209,-0.0221,-0.0226,-0.0262,-0.0332,-0.03,-0.0306,-0.0246,-0.0247,-0.0247,-0.037,0,-0.0023,0.0033,0.0037,0.0084,0.0112,0.009,0.0093,0.0074,0.0039,0.0007,-0.0029,-0.0063,-0.0072,-0.01,-0.0122,-0.0196,-0.0227,-0.0175,-0.0349,-0.0354,-0.0319,-0.0313,-0.025,-0.0376,-0.0378,-0.0379,-0.038,0,0.0024,0.0053,0.0116,0.0148,0.0153,0.0161,0.0144,0.0142,0.009,0.006,0.002,-0.0033,-0.0063,-0.009,-0.019,-0.0165,-0.0235,-0.029,-0.0297,-0.0298,-0.0336,-0.0395,-0.0395,-0.0394,-0.0393,-0.0392,-0.0391,0,0.0062,0.0117,0.0168,0.0187,0.0201,0.0205,0.0196,0.0154,0.0133,0.0079,0.0039,-0.0013,-0.0063,-0.0144,-0.0233,-0.023,-0.0364,-0.0381,-0.042,-0.0421,-0.0448,-0.0447,-0.0459,-0.0459,-0.0459,-0.0458,-0.0458,0,0.0132,0.0172,0.0184,0.0218,0.0223,0.0229,0.0212,0.0189,0.0145,0.0115,0.006,0.0018,-0.0083,-0.0168,-0.0246,-0.0349,-0.0379,-0.041,-0.0445,-0.0414,-0.0408,-0.0454,-0.0452,-0.0463,-0.0462,-0.0461,-0.046,0,0.0175,0.0207,0.0235,0.0248,0.0246,0.0234,0.0209,0.0183,0.0158,0.011,0.0093,0.002,-0.0073,-0.0177,-0.0317,-0.0367,-0.0468,-0.0501,-0.046,-0.0492,-0.0496,-0.0488,-0.0565,-0.0564,-0.0564,-0.0564,-0.0564,0,0.0207,0.0234,0.0231,0.021,0.0212,0.02,0.0178,0.0174,0.0154,0.0117,0.0093,0.0007,-0.0048,-0.0206,-0.0317,-0.047,-0.0481,-0.0547,-0.0506,-0.0478,-0.0505,-0.0497,-0.049,-0.0564,-0.0564,-0.0563,-0.0563,0,0.0216,0.0202,0.02,0.018,0.0154,0.0154,0.0146,0.0151,0.015,0.0113,0.0108,0.0036,-0.0069,-0.0178,-0.0298,-0.0407,-0.0507,-0.0545,-0.0547,-0.0508,-0.0478,-0.0503,-0.0496,-0.0563,-0.0563,-0.0563,-0.0563,0,0.0163,0.0137,0.0121,0.0117,0.0101,0.0135,0.0137,0.0146,0.0151,0.0145,0.014,0.0051,-0.001,-0.0149,-0.026,-0.0357,-0.0381,-0.041,-0.0419,-0.0421,-0.0328,-0.0265,-0.0311,0,0,0,0,0,0.0088,0.0071,0.0061,0.0073,0.0091,0.0116,0.012,0.0131,0.015,0.0157,0.0168,0.0089,-0.0041,-0.0107,-0.0195,-0.0282,-0.0424,-0.0393,-0.0466,-0.0559,-0.056,-0.047,0,0,0,0,0,0,0.0015,-0.0015,0.0037,0.0079,0.0114,0.0145,0.0171,0.0185,0.0205,0.0203,0.0141,0.0087,-0.0045,0.0035,-0.018,-0.0218,-0.0275,-0.0467,-0.0469,-0.0559,-0.0559,-0.056,-0.0468,0,0,0,0,0]}]]